Overview Statistics Trail Chart Weather Telemetry Raw packets
 

This is the latest recevied weather packets stored in our database for station/object OK1FET-4. If no packets are shown the sender has not sent any weather packets the latest 10 day(s).

<< 101 102 103 104 105 106 107 >>
Time Temp. Humidity Pressure Rain* Wind** Luminosity Snow
1787901417 21.67° C 71% 1014 hPa - - - -
1787901116 21.67° C 71% 1014 hPa - - - -
1787900815 21.11° C 72% 1014 hPa - - - -
1787900514 20.56° C 72% 1014.2 hPa - - - -
1787900214 20° C 73% 1014.2 hPa - - - -
1787899913 19.44° C 73% 1014.2 hPa - - - -
1787899612 18.89° C 73% 1014.4 hPa - - - -
1787899311 18.33° C 74% 1014.2 hPa - - - -
1787899010 17.78° C 73% 1014.1 hPa - - - -
1787898710 17.78° C 73% 1014.3 hPa - - - -
1787898409 17.78° C 73% 1014.3 hPa - - - -
1787898108 17.78° C 74% 1014.2 hPa - - - -
1787897808 17.78° C 74% 1014.3 hPa - - - -
1787897507 18.33° C 73% 1014.1 hPa - - - -
1787897206 18.33° C 74% 1014.1 hPa - - - -
1787896906 18.33° C 73% 1014.2 hPa - - - -
1787896605 18.89° C 74% 1014.1 hPa - - - -
1787896305 18.89° C 74% 1014 hPa - - - -
1787896003 18.89° C 74% 1014 hPa - - - -
1787895702 18.33° C 74% 1014.1 hPa - - - -
1787895402 17.78° C 75% 1014 hPa - - - -
1787895101 17.78° C 74% 1014 hPa - - - -
1787894800 17.78° C 74% 1014 hPa - - - -
1787894500 17.22° C 75% 1013.9 hPa - - - -
1787894199 16.67° C 75% 1013.9 hPa - - - -

* Rain since midnight (hover to see other rain measurements)
** Current wind speed in m/s (hover to see current wind gust speed)